VCP98M EETN-EDDB

Flight info

Callsign VCP98M
Flight time 1h 42m
Altitude 34000
Route LONSA DCT TODNA DCT EVONA DCT DIPEB DCT GOSOT Z131 BANUB DCT USEDU/N0451F390 Z14 BEKBA T280 KETAP KETAP1R
Aircraft A20N/M-SDE2E3FGHIRWXY/LB1

Departure

Time 2026-05-05 17:34
Airport Lennart Meri Tallinn Airport (EETN)

Arrival

Time 2026-05-05 19:16
Airport Berlin Brandenburg Airport (EDDB)
Time Latitude Longitude Altitude Speed Heading
2026-05-05 17:06 59.41737 24.80805 161 ft 0 kts
2026-05-05 17:19 59.41734 24.80805 161 ft 2 kts
2026-05-05 17:19 59.41719 24.80805 160 ft 2 kts
2026-05-05 17:19 59.41704 24.80805 159 ft 2 kts
2026-05-05 17:20 59.41689 24.80805 159 ft 2 kts
2026-05-05 17:20 59.41675 24.80799 159 ft 2 kts 39°
2026-05-05 17:20 59.41666 24.80776 159 ft 2 kts 77°
2026-05-05 17:20 59.41665 24.80762 159 ft 1 kts 96°
2026-05-05 17:21 59.41665 24.80753 160 ft 0 kts 90°
2026-05-05 17:23 59.41665 24.80758 159 ft 2 kts 90°
2026-05-05 17:23 59.41665 24.80824 158 ft 7 kts 90°
2026-05-05 17:23 59.41666 24.80923 158 ft 8 kts 90°
2026-05-05 17:24 59.41666 24.81047 158 ft 10 kts 90°
2026-05-05 17:24 59.41639 24.81177 157 ft 12 kts 157°
2026-05-05 17:24 59.41549 24.81186 153 ft 13 kts 170°
2026-05-05 17:24 59.41506 24.81335 151 ft 14 kts 90°
2026-05-05 17:25 59.41506 24.81557 148 ft 17 kts 91°
2026-05-05 17:25 59.41507 24.81717 148 ft 17 kts 89°
2026-05-05 17:25 59.41503 24.82022 148 ft 16 kts 91°
2026-05-05 17:25 59.41505 24.82242 148 ft 16 kts 85°
2026-05-05 17:26 59.41502 24.82475 148 ft 18 kts 92°
2026-05-05 17:26 59.41502 24.82729 148 ft 18 kts 89°
2026-05-05 17:26 59.41506 24.82984 148 ft 18 kts 86°
2026-05-05 17:26 59.41503 24.83243 148 ft 18 kts 94°
2026-05-05 17:27 59.41499 24.83490 151 ft 17 kts 87°
2026-05-05 17:27 59.41500 24.83725 151 ft 17 kts 92°
2026-05-05 17:27 59.41499 24.83966 151 ft 17 kts 92°
2026-05-05 17:27 59.41499 24.84213 151 ft 18 kts 88°
2026-05-05 17:28 59.41500 24.84465 151 ft 18 kts 91°
2026-05-05 17:28 59.41500 24.84706 151 ft 16 kts 90°
2026-05-05 17:28 59.41498 24.84903 151 ft 13 kts 95°
2026-05-05 17:28 59.41454 24.85010 151 ft 8 kts 176°
2026-05-05 17:29 59.41433 24.85010 151 ft 0 kts 181°
2026-05-05 17:31 59.41416 24.85009 151 ft 4 kts 182°
2026-05-05 17:31 59.41373 24.85008 151 ft 7 kts 180°
2026-05-05 17:31 59.41326 24.84973 151 ft 8 kts 248°
2026-05-05 17:32 59.41322 24.84927 151 ft 0 kts 268°
2026-05-05 17:33 59.41322 24.84908 151 ft 12 kts 268°
2026-05-05 17:33 59.41325 24.84197 151 ft 88 kts 270°
2026-05-05 17:33 59.41325 24.82586 150 ft 147 kts 267°
2026-05-05 17:33 59.41289 24.80488 694 ft 154 kts 271°
2026-05-05 17:34 59.41302 24.78438 1456 ft 153 kts 273°
2026-05-05 17:34 59.41096 24.76406 2076 ft 164 kts 247°
2026-05-05 17:34 59.40423 24.74435 2491 ft 186 kts 239°
2026-05-05 17:34 59.39610 24.72250 2735 ft 216 kts 238°
2026-05-05 17:35 59.38677 24.69701 3115 ft 240 kts 238°
2026-05-05 17:35 59.37703 24.66991 3760 ft 253 kts 239°
2026-05-05 17:35 59.36691 24.64145 4619 ft 258 kts 239°
2026-05-05 17:35 59.35673 24.61262 5569 ft 259 kts 239°
2026-05-05 17:36 59.34657 24.58367 6504 ft 261 kts 239°
2026-05-05 17:36 59.33643 24.55468 7456 ft 261 kts 239°
2026-05-05 17:36 59.32642 24.52602 8409 ft 260 kts 239°
2026-05-05 17:36 59.31635 24.49716 9359 ft 259 kts 239°
2026-05-05 17:37 59.30631 24.46839 10280 ft 258 kts 239°
2026-05-05 17:37 59.29959 24.44918 10681 ft 265 kts 238°
2026-05-05 17:37 59.28379 24.40992 11190 ft 289 kts 234°
2026-05-05 17:37 59.27047 24.37880 11526 ft 307 kts 233°
2026-05-05 17:38 59.25638 24.34588 11832 ft 324 kts 233°
2026-05-05 17:38 59.24175 24.31162 12117 ft 340 kts 232°
2026-05-05 17:38 59.22627 24.27525 12395 ft 355 kts 232°
2026-05-05 17:38 59.21027 24.23774 12856 ft 363 kts 232°
2026-05-05 17:39 59.19418 24.19999 13540 ft 365 kts 232°
2026-05-05 17:39 59.17805 24.16222 14190 ft 366 kts 233°
2026-05-05 17:39 59.16179 24.12412 14817 ft 368 kts 233°
2026-05-05 17:39 59.14558 24.08618 15429 ft 370 kts 233°
2026-05-05 17:40 59.12904 24.04748 15984 ft 373 kts 233°
2026-05-05 17:40 59.11242 24.00866 16574 ft 375 kts 233°
2026-05-05 17:40 59.09581 23.96992 17117 ft 377 kts 233°
2026-05-05 17:40 59.07905 23.93086 17636 ft 379 kts 233°
2026-05-05 17:41 59.06221 23.89169 18141 ft 381 kts 233°
2026-05-05 17:41 59.04527 23.85238 18625 ft 383 kts 233°
2026-05-05 17:41 59.02816 23.81268 19107 ft 385 kts 233°
2026-05-05 17:41 59.01082 23.77256 19568 ft 387 kts 233°
2026-05-05 17:42 58.99356 23.73269 20026 ft 389 kts 233°
2026-05-05 17:42 58.97623 23.69271 20471 ft 391 kts 233°
2026-05-05 17:42 58.95886 23.65274 20888 ft 393 kts 233°
2026-05-05 17:42 58.94125 23.61227 21303 ft 395 kts 233°
2026-05-05 17:43 58.92361 23.57182 21725 ft 397 kts 233°
2026-05-05 17:43 58.90586 23.53117 22116 ft 399 kts 233°
2026-05-05 17:43 58.88794 23.49018 22512 ft 400 kts 233°
2026-05-05 17:43 58.86993 23.44908 22890 ft 402 kts 232°
2026-05-05 17:44 58.85189 23.40800 23243 ft 403 kts 233°
2026-05-05 17:44 58.83380 23.36690 23675 ft 402 kts 232°
2026-05-05 17:44 58.81598 23.32644 24199 ft 400 kts 232°
2026-05-05 17:44 58.79805 23.28585 24712 ft 398 kts 232°
2026-05-05 17:45 58.78023 23.24556 25162 ft 397 kts 232°
2026-05-05 17:45 58.76233 23.20515 25588 ft 397 kts 232°
2026-05-05 17:45 58.74463 23.16519 26021 ft 397 kts 232°
2026-05-05 17:45 58.72671 23.12487 26457 ft 397 kts 232°
2026-05-05 17:46 58.70884 23.08473 26899 ft 396 kts 232°
2026-05-05 17:46 58.69102 23.04475 27347 ft 395 kts 232°
2026-05-05 17:46 58.67322 23.00491 27757 ft 395 kts 232°
2026-05-05 17:46 58.65539 22.96505 28141 ft 395 kts 232°
2026-05-05 17:47 58.63747 22.92503 28522 ft 395 kts 232°
2026-05-05 17:47 58.61979 22.88567 28887 ft 394 kts 232°
2026-05-05 17:47 58.60184 22.84578 29246 ft 394 kts 232°
2026-05-05 17:47 58.58419 22.80658 29592 ft 394 kts 232°
2026-05-05 17:48 58.56633 22.76695 29908 ft 394 kts 232°
2026-05-05 17:48 58.54842 22.72733 30217 ft 394 kts 232°
2026-05-05 17:48 58.53063 22.68804 30531 ft 393 kts 232°
2026-05-05 17:48 58.51270 22.64850 30824 ft 393 kts 232°
2026-05-05 17:49 58.49493 22.60939 31087 ft 393 kts 232°
2026-05-05 17:49 58.47697 22.56997 31355 ft 393 kts 232°
2026-05-05 17:49 58.45927 22.53110 31610 ft 393 kts 232°
2026-05-05 17:49 58.44127 22.49170 31863 ft 393 kts 232°
2026-05-05 17:50 58.42351 22.45288 32083 ft 393 kts 232°
2026-05-05 17:50 58.40554 22.41365 32297 ft 393 kts 232°
2026-05-05 17:50 58.38752 22.37440 32476 ft 395 kts 232°
2026-05-05 17:50 58.36943 22.33503 32629 ft 397 kts 231°
2026-05-05 17:51 58.35133 22.29573 32800 ft 398 kts 231°
2026-05-05 17:51 58.33314 22.25629 32980 ft 399 kts 231°
2026-05-05 17:51 58.31496 22.21698 33148 ft 400 kts 231°
2026-05-05 17:51 58.29661 22.17729 33303 ft 401 kts 231°
2026-05-05 17:52 58.27807 22.13732 33463 ft 402 kts 231°
2026-05-05 17:52 58.25980 22.09795 33613 ft 403 kts 231°
2026-05-05 17:52 58.24123 22.05804 33768 ft 404 kts 231°
2026-05-05 17:53 58.20421 21.97867 33868 ft 405 kts 231°
2026-05-05 17:53 58.16679 21.89869 33870 ft 405 kts 231°
2026-05-05 17:54 58.12954 21.81937 33872 ft 406 kts 231°
2026-05-05 17:54 58.09204 21.73984 33872 ft 407 kts 231°
2026-05-05 17:55 58.05456 21.66054 33872 ft 407 kts 231°
2026-05-05 17:55 58.01685 21.58108 33872 ft 408 kts 231°
2026-05-05 17:56 57.97858 21.50228 33871 ft 408 kts 230°
2026-05-05 17:56 57.93984 21.42494 33869 ft 409 kts 230°
2026-05-05 17:57 57.90106 21.34767 33870 ft 409 kts 229°
2026-05-05 17:57 57.86203 21.27003 33872 ft 409 kts 229°
2026-05-05 17:58 57.82307 21.19276 33874 ft 410 kts 229°
2026-05-05 17:58 57.78401 21.11557 33876 ft 411 kts 229°
2026-05-05 17:59 57.74475 21.03817 33879 ft 411 kts 229°
2026-05-05 17:59 57.70540 20.96089 33886 ft 411 kts 229°
2026-05-05 18:00 57.66622 20.88422 33892 ft 412 kts 229°
2026-05-05 18:00 57.62673 20.80717 33897 ft 413 kts 229°
2026-05-05 18:01 57.58716 20.73023 33892 ft 413 kts 229°
2026-05-05 18:01 57.54745 20.65324 33897 ft 413 kts 229°
2026-05-05 18:02 57.50776 20.57658 33897 ft 413 kts 229°
2026-05-05 18:02 57.46790 20.49981 33902 ft 415 kts 229°
2026-05-05 18:03 57.42791 20.42308 33895 ft 414 kts 229°
2026-05-05 18:03 57.38789 20.34655 33900 ft 415 kts 229°
2026-05-05 18:04 57.34791 20.27037 33901 ft 416 kts 229°
2026-05-05 18:04 57.30764 20.19383 33897 ft 417 kts 229°
2026-05-05 18:05 57.26714 20.11716 33898 ft 417 kts 229°
2026-05-05 18:05 57.22687 20.04114 33904 ft 419 kts 229°
2026-05-05 18:06 57.18613 19.96455 33900 ft 419 kts 229°
2026-05-05 18:06 57.14653 19.88641 33904 ft 419 kts 231°
2026-05-05 18:07 57.10787 19.80677 33904 ft 419 kts 231°
2026-05-05 18:07 57.06897 19.72706 33897 ft 419 kts 231°
2026-05-05 18:08 57.03019 19.64780 33891 ft 419 kts 231°
2026-05-05 18:08 56.99153 19.56896 33889 ft 419 kts 231°
2026-05-05 18:09 56.95254 19.48970 33889 ft 419 kts 231°
2026-05-05 18:09 56.91357 19.41074 33894 ft 419 kts 231°
2026-05-05 18:10 56.87458 19.33201 33895 ft 419 kts 230°
2026-05-05 18:10 56.83556 19.25347 33890 ft 418 kts 230°
2026-05-05 18:11 56.79657 19.17525 33896 ft 418 kts 230°
2026-05-05 18:11 56.75773 19.09761 33893 ft 418 kts 230°
2026-05-05 18:12 56.71854 19.01950 33891 ft 418 kts 230°
2026-05-05 18:12 56.67959 18.94213 33894 ft 417 kts 230°
2026-05-05 18:13 56.64052 18.86478 33892 ft 418 kts 230°
2026-05-05 18:13 56.60125 18.78728 33893 ft 418 kts 230°
2026-05-05 18:14 56.56192 18.70993 33895 ft 418 kts 230°
2026-05-05 18:14 56.52262 18.63293 33901 ft 419 kts 230°
2026-05-05 18:15 56.48322 18.55594 33903 ft 419 kts 231°
2026-05-05 18:15 56.44352 18.47861 33901 ft 419 kts 230°
2026-05-05 18:16 56.40410 18.40208 33901 ft 420 kts 230°
2026-05-05 18:16 56.36439 18.32525 33902 ft 422 kts 230°
2026-05-05 18:17 56.32431 18.24796 33899 ft 423 kts 229°
2026-05-05 18:17 56.28413 18.17071 33888 ft 424 kts 230°
2026-05-05 18:18 56.24405 18.09395 33879 ft 424 kts 230°
2026-05-05 18:18 56.20361 18.01671 33874 ft 425 kts 230°
2026-05-05 18:19 56.16581 17.93606 33874 ft 424 kts 235°
2026-05-05 18:19 56.13092 17.85203 33880 ft 424 kts 236°
2026-05-05 18:20 56.09557 17.76749 33884 ft 423 kts 236°
2026-05-05 18:20 56.06048 17.68366 33884 ft 424 kts 236°
2026-05-05 18:21 56.02506 17.59929 33884 ft 424 kts 236°
2026-05-05 18:21 55.98983 17.51570 33879 ft 423 kts 236°
2026-05-05 18:22 55.95448 17.43206 33880 ft 423 kts 236°
2026-05-05 18:22 55.91914 17.34873 33876 ft 422 kts 235°
2026-05-05 18:23 55.88397 17.26608 33877 ft 422 kts 235°
2026-05-05 18:23 55.84870 17.18345 33879 ft 420 kts 235°
2026-05-05 18:24 55.81339 17.10103 33873 ft 420 kts 235°
2026-05-05 18:24 55.77806 17.01884 33873 ft 419 kts 235°
2026-05-05 18:25 55.74284 16.93716 33874 ft 417 kts 235°
2026-05-05 18:25 55.70777 16.85610 33873 ft 416 kts 235°
2026-05-05 18:26 55.67271 16.77534 33879 ft 415 kts 235°
2026-05-05 18:26 55.63755 16.69462 33881 ft 415 kts 235°
2026-05-05 18:27 55.60256 16.61453 33886 ft 414 kts 235°
2026-05-05 18:27 55.56736 16.53425 33883 ft 414 kts 235°
2026-05-05 18:28 55.51475 16.41472 33888 ft 412 kts 235°
2026-05-05 18:28 55.47959 16.33522 33886 ft 411 kts 234°
2026-05-05 18:29 55.44445 16.25592 33887 ft 411 kts 234°
2026-05-05 18:29 55.40951 16.17734 33886 ft 411 kts 234°
2026-05-05 18:30 55.37439 16.09869 33889 ft 410 kts 234°
2026-05-05 18:30 55.33939 16.02049 33889 ft 409 kts 234°
2026-05-05 18:31 55.30406 15.94184 33894 ft 409 kts 234°
2026-05-05 18:31 55.26916 15.86438 33893 ft 408 kts 234°
2026-05-05 18:32 55.23412 15.78686 33896 ft 407 kts 234°
2026-05-05 18:32 55.19896 15.70933 33890 ft 407 kts 234°
2026-05-05 18:33 55.16402 15.63251 33890 ft 406 kts 234°
2026-05-05 18:33 55.12889 15.55555 33895 ft 406 kts 234°
2026-05-05 18:34 55.09369 15.47860 33896 ft 405 kts 234°
2026-05-05 18:34 55.05892 15.40290 33899 ft 403 kts 234°
2026-05-05 18:35 55.02379 15.32660 33885 ft 402 kts 233°
2026-05-05 18:35 54.98904 15.25140 33881 ft 402 kts 233°
2026-05-05 18:36 54.95392 15.17558 33876 ft 402 kts 233°
2026-05-05 18:36 54.91906 15.10056 33876 ft 402 kts 233°
2026-05-05 18:37 54.88399 15.02534 33876 ft 402 kts 233°
2026-05-05 18:37 54.84868 14.94984 33870 ft 402 kts 233°
2026-05-05 18:38 54.81319 14.87583 33873 ft 404 kts 231°
2026-05-05 18:38 54.77326 14.80690 33868 ft 408 kts 223°
2026-05-05 18:39 54.72539 14.75339 33872 ft 412 kts 216°
2026-05-05 18:39 54.67630 14.70354 33869 ft 411 kts 215°
2026-05-05 18:40 54.62707 14.65371 33872 ft 412 kts 215°
2026-05-05 18:40 54.57767 14.60376 33870 ft 412 kts 215°
2026-05-05 18:41 54.52852 14.55419 33873 ft 411 kts 215°
2026-05-05 18:41 54.47915 14.50454 33875 ft 412 kts 216°
2026-05-05 18:42 54.42990 14.45513 33876 ft 412 kts 215°
2026-05-05 18:42 54.38058 14.40577 33877 ft 412 kts 215°
2026-05-05 18:43 54.33131 14.35661 33876 ft 412 kts 215°
2026-05-05 18:43 54.28176 14.30732 33876 ft 412 kts 214°
2026-05-05 18:44 54.23240 14.25837 33879 ft 413 kts 214°
2026-05-05 18:44 54.18277 14.20925 33885 ft 413 kts 214°
2026-05-05 18:45 54.13337 14.16052 33888 ft 413 kts 214°
2026-05-05 18:45 54.08378 14.11176 33890 ft 412 kts 214°
2026-05-05 18:46 54.03426 14.06317 33889 ft 412 kts 214°
2026-05-05 18:46 53.98480 14.01480 33891 ft 411 kts 214°
2026-05-05 18:47 53.93553 13.96669 33885 ft 411 kts 214°
2026-05-05 18:47 53.88588 13.91836 33888 ft 412 kts 214°
2026-05-05 18:48 53.83625 13.87024 33885 ft 412 kts 214°
2026-05-05 18:48 53.78674 13.82232 33880 ft 412 kts 214°
2026-05-05 18:49 53.73730 13.77460 33875 ft 412 kts 214°
2026-05-05 18:49 53.68767 13.72684 33871 ft 412 kts 214°
2026-05-05 18:50 53.63770 13.67886 33869 ft 412 kts 214°
2026-05-05 18:50 53.58812 13.63141 33869 ft 413 kts 213°
2026-05-05 18:51 53.53822 13.58379 33871 ft 413 kts 213°
2026-05-05 18:51 53.48865 13.53660 33865 ft 413 kts 213°
2026-05-05 18:52 53.43867 13.48913 33861 ft 414 kts 213°
2026-05-05 18:52 53.38842 13.44160 33856 ft 414 kts 213°
2026-05-05 18:53 53.36348 13.41801 33620 ft 414 kts 213°
2026-05-05 18:53 53.33865 13.39459 33339 ft 412 kts 213°
2026-05-05 18:53 53.31401 13.37141 33063 ft 410 kts 213°
2026-05-05 18:53 53.28925 13.34811 32783 ft 407 kts 212°
2026-05-05 18:54 53.26457 13.32491 32503 ft 407 kts 212°
2026-05-05 18:54 53.23988 13.30174 32221 ft 408 kts 212°
2026-05-05 18:54 53.21540 13.27880 31845 ft 410 kts 212°
2026-05-05 18:54 53.19048 13.25547 31227 ft 412 kts 212°
2026-05-05 18:55 53.16540 13.23202 30442 ft 413 kts 212°
2026-05-05 18:55 53.14079 13.20905 29604 ft 414 kts 212°
2026-05-05 18:55 53.11559 13.18554 28705 ft 417 kts 212°
2026-05-05 18:55 53.09031 13.16197 27779 ft 420 kts 211°
2026-05-05 18:56 53.06511 13.13852 26827 ft 423 kts 211°
2026-05-05 18:56 53.03907 13.11453 25821 ft 430 kts 211°
2026-05-05 18:56 53.01298 13.09084 24789 ft 434 kts 211°
2026-05-05 18:56 52.98663 13.06684 23746 ft 437 kts 211°
2026-05-05 18:57 52.96017 13.04257 22700 ft 441 kts 211°
2026-05-05 18:57 52.93341 13.01794 22002 ft 435 kts 210°
2026-05-05 18:57 52.90748 12.99401 21344 ft 430 kts 210°
2026-05-05 18:57 52.88162 12.97013 20682 ft 427 kts 210°
2026-05-05 18:58 52.85583 12.94631 20002 ft 423 kts 210°
2026-05-05 18:58 52.82997 12.92258 19357 ft 429 kts 210°
2026-05-05 18:58 52.80409 12.89886 18734 ft 430 kts 210°
2026-05-05 18:58 52.77791 12.87484 18108 ft 428 kts 210°
2026-05-05 18:59 52.75225 12.85132 17503 ft 425 kts 210°
2026-05-05 18:59 52.72660 12.82781 16878 ft 421 kts 210°
2026-05-05 18:59 52.70105 12.80437 16254 ft 418 kts 210°
2026-05-05 18:59 52.67609 12.78150 15642 ft 414 kts 210°
2026-05-05 19:00 52.65103 12.75851 15030 ft 411 kts 210°
2026-05-05 19:00 52.62631 12.73585 14400 ft 407 kts 210°
2026-05-05 19:00 52.60169 12.71315 13780 ft 404 kts 210°
2026-05-05 19:00 52.57752 12.69082 13153 ft 401 kts 210°
2026-05-05 19:01 52.55349 12.66857 12547 ft 398 kts 210°
2026-05-05 19:01 52.52938 12.64630 11978 ft 395 kts 210°
2026-05-05 19:01 52.50568 12.62427 11468 ft 394 kts 210°
2026-05-05 19:01 52.48212 12.60227 10977 ft 391 kts 210°
2026-05-05 19:02 52.45847 12.58019 10484 ft 388 kts 210°
2026-05-05 19:02 52.43556 12.55862 10017 ft 379 kts 210°
2026-05-05 19:02 52.41306 12.53712 9827 ft 363 kts 210°
2026-05-05 19:02 52.39202 12.51685 9821 ft 343 kts 211°
2026-05-05 19:03 52.37201 12.49770 9816 ft 325 kts 210°
2026-05-05 19:03 52.35290 12.47946 9808 ft 308 kts 210°
2026-05-05 19:03 52.33501 12.46231 9802 ft 295 kts 210°
2026-05-05 19:03 52.31707 12.44692 9803 ft 292 kts 198°
2026-05-05 19:04 52.29711 12.44302 9671 ft 287 kts 173°
2026-05-05 19:04 52.27855 12.45304 9216 ft 285 kts 147°
2026-05-05 19:04 52.26474 12.47528 8767 ft 284 kts 120°
2026-05-05 19:04 52.25696 12.50478 8388 ft 281 kts 108°
2026-05-05 19:05 52.25125 12.53505 8027 ft 279 kts 105°
2026-05-05 19:05 52.24591 12.56526 7633 ft 278 kts 105°
2026-05-05 19:05 52.24073 12.59526 7258 ft 276 kts 105°
2026-05-05 19:05 52.23560 12.62519 6880 ft 275 kts 105°
2026-05-05 19:06 52.23038 12.65530 6495 ft 274 kts 105°
2026-05-05 19:06 52.22522 12.68482 6165 ft 271 kts 105°
2026-05-05 19:06 52.22001 12.71436 5788 ft 270 kts 105°
2026-05-05 19:06 52.21486 12.74336 5416 ft 268 kts 105°
2026-05-05 19:07 52.20964 12.77251 5087 ft 266 kts 105°
2026-05-05 19:07 52.20622 12.79146 4979 ft 263 kts 105°
2026-05-05 19:07 52.19930 12.82970 4974 ft 265 kts 105°
2026-05-05 19:07 52.19561 12.85867 4960 ft 263 kts 88°
2026-05-05 19:08 52.19994 12.88739 4846 ft 261 kts 60°
2026-05-05 19:08 52.21048 12.91139 4733 ft 260 kts 50°
2026-05-05 19:08 52.22205 12.93355 4614 ft 258 kts 49°
2026-05-05 19:08 52.23379 12.95547 4489 ft 257 kts 49°
2026-05-05 19:09 52.24439 12.97864 4320 ft 250 kts 59°
2026-05-05 19:09 52.25215 13.00318 4153 ft 241 kts 63°
2026-05-05 19:09 52.25915 13.02748 3985 ft 233 kts 65°
2026-05-05 19:09 52.26551 13.05118 3825 ft 225 kts 66°
2026-05-05 19:10 52.27143 13.07465 3593 ft 222 kts 67°
2026-05-05 19:10 52.27703 13.09781 3362 ft 217 kts 68°
2026-05-05 19:10 52.28234 13.12034 3204 ft 210 kts 68°
2026-05-05 19:10 52.28741 13.14216 3052 ft 203 kts 68°
2026-05-05 19:11 52.29229 13.16327 2978 ft 192 kts 68°
2026-05-05 19:11 52.29678 13.18274 2962 ft 179 kts 68°
2026-05-05 19:11 52.30112 13.20149 3048 ft 176 kts 68°
2026-05-05 19:11 52.30549 13.22034 3022 ft 176 kts 68°
2026-05-05 19:12 52.30980 13.23887 3002 ft 176 kts 68°
2026-05-05 19:12 52.31419 13.25773 2986 ft 176 kts 68°
2026-05-05 19:12 52.31852 13.27622 2808 ft 175 kts 68°
2026-05-05 19:12 52.32287 13.29484 2572 ft 174 kts 67°
2026-05-05 19:13 52.32717 13.31316 2334 ft 170 kts 67°
2026-05-05 19:13 52.33125 13.33044 2081 ft 157 kts 66°
2026-05-05 19:13 52.33491 13.34572 2023 ft 137 kts 68°
2026-05-05 19:13 52.33785 13.36034 1888 ft 133 kts 69°
2026-05-05 19:14 52.34066 13.37477 1774 ft 132 kts 68°
2026-05-05 19:14 52.34349 13.38884 1592 ft 132 kts 65°
2026-05-05 19:14 52.34672 13.40286 1424 ft 131 kts 67°
2026-05-05 19:14 52.35025 13.41701 1330 ft 137 kts 64°
2026-05-05 19:15 52.35390 13.43133 1006 ft 138 kts 63°
2026-05-05 19:15 52.35784 13.44560 775 ft 137 kts 65°
2026-05-05 19:15 52.36144 13.45990 529 ft 136 kts 66°
2026-05-05 19:15 52.36499 13.47401 333 ft 134 kts 67°
2026-05-05 19:16 52.36842 13.48809 169 ft 131 kts 67°
2026-05-05 19:16 52.37153 13.50113 144 ft 105 kts 68°
2026-05-05 19:16 52.37355 13.50961 146 ft 60 kts 69°
2026-05-05 19:16 52.37452 13.51500 150 ft 34 kts 89°
2026-05-05 19:17 52.37434 13.51809 151 ft 16 kts 97°
2026-05-05 19:17 52.37421 13.51922 151 ft 9 kts 106°
2026-05-05 19:17 52.37395 13.51992 153 ft 5 kts 185°
2026-05-05 19:17 52.37353 13.51941 152 ft 8 kts 236°
2026-05-05 19:18 52.37326 13.51853 153 ft 9 kts 249°
2026-05-05 19:18 52.37304 13.51747 153 ft 10 kts 248°
2026-05-05 19:18 52.37273 13.51628 152 ft 12 kts 248°
2026-05-05 19:18 52.37240 13.51483 151 ft 14 kts 248°
2026-05-05 19:19 52.37203 13.51335 152 ft 14 kts 250°
2026-05-05 19:19 52.37169 13.51169 150 ft 16 kts 248°
2026-05-05 19:19 52.37123 13.50994 149 ft 17 kts 250°
2026-05-05 19:19 52.37078 13.50798 146 ft 19 kts 248°
2026-05-05 19:20 52.37029 13.50599 143 ft 17 kts 246°
2026-05-05 19:20 52.36992 13.50458 143 ft 11 kts 249°
2026-05-05 19:20 52.36969 13.50350 143 ft 10 kts 251°
2026-05-05 19:20 52.36944 13.50233 143 ft 10 kts 248°
2026-05-05 19:21 52.36893 13.50132 141 ft 13 kts 185°
2026-05-05 19:21 52.36797 13.50181 140 ft 15 kts 155°
2026-05-05 19:21 52.36771 13.50319 141 ft 13 kts 69°
2026-05-05 19:21 52.36806 13.50459 143 ft 13 kts 68°
2026-05-05 19:22 52.36838 13.50602 143 ft 13 kts 68°
2026-05-05 19:22 52.36873 13.50748 145 ft 12 kts 69°
2026-05-05 19:22 52.36868 13.50826 146 ft 7 kts 148°
2026-05-05 19:22 52.36823 13.50858 146 ft 5 kts 156°
2026-05-05 19:23 52.36812 13.50865 145 ft 0 kts 158°